N4DWK Weather Reports


Display with metric or nautical units.
time (UTC)temp
F
wind
direction
speed
MPH
gust
MPH
rain 1hr
in
rain 24hr
in
rain mn
in
humidity
%
barometer
mb
20260509023503 61 234 3.0 5.0 0.00 0.00 0.00 55 1014.4
20260509023006 61 217 2.0 3.0 0.00 0.00 0.00 55 1014.3
20260509022505 61 217 1.0 3.0 0.00 0.00 0.00 55 1014.2
20260509022003 61 218 1.0 3.0 0.00 0.00 0.00 55 1014.2
20260509021503 61 213 1.0 3.0 0.00 0.00 0.00 55 1014.3
20260509021003 61 209 1.0 3.0 0.00 0.00 0.00 55 1014.3
20260509020503 61 206 1.0 3.0 0.00 0.00 0.00 54 1014.3
20260509020004 61 205 0.0 2.0 0.00 0.00 0.00 55 1014.3
20260509015504 62 205 0.0 2.0 0.00 0.00 0.00 54 1014.0
20260509015003 62 205 0.0 3.0 0.00 0.00 0.00 54 1014.0
20260509013504 62 221 0.0 3.0 0.00 0.00 0.00 53 1014.0
20260509012504 62 229 1.0 2.0 0.00 0.00 0.00 52 1013.9
20260509012006 63 229 0.0 2.0 0.00 0.00 0.00 53 1013.8
20260509011505 63 229 1.0 2.0 0.00 0.00 0.00 51 1013.7
20260509010505 64 229 0.0 2.0 0.00 0.00 0.00 51 1013.8
20260509010005 64 229 1.0 2.0 0.00 0.00 0.00 49 1013.7
20260509005505 64 229 0.0 2.0 0.00 0.00 0.00 49 1013.8
20260509005005 64 229 0.0 2.0 0.00 0.00 0.00 49 1013.8
20260509004505 65 229 1.0 3.0 0.00 0.00 0.00 49 1013.7
20260509004005 65 229 1.0 3.0 0.00 0.00 0.00 48 1013.8
20260509003504 65 229 1.0 3.0 0.00 0.00 0.00 47 1013.8
20260509002505 66 229 1.0 3.0 0.00 0.00 0.00 47 1013.6
20260509002005 66 227 2.0 5.0 0.00 0.00 0.00 46 1013.6
20260509001505 66 227 1.0 5.0 0.00 0.00 0.00 45 1013.6
20260509001004 67 229 2.0 5.0 0.00 0.00 0.00 46 1013.6
20260509000504 67 229 2.0 5.0 0.00 0.00 0.00 46 1013.6
20260509000004 67 221 1.0 3.0 0.00 0.00 0.00 46 1013.5
20260508235504 67 221 2.0 3.0 0.00 0.00 0.00 46 1013.5
20260508235005 68 217 2.0 3.0 0.00 0.00 0.00 45 1013.4
20260508234504 68 217 2.0 3.0 0.00 0.00 0.00 44 1013.3
20260508234005 68 216 2.0 3.0 0.00 0.00 0.00 44 1013.2
20260508233006 69 218 1.0 5.0 0.00 0.00 0.00 43 1013.1
20260508232504 69 219 3.0 5.0 0.00 0.00 0.00 42 1013.1
20260508232006 69 224 2.0 6.0 0.00 0.00 0.00 42 1013.0
20260508231505 69 229 3.0 6.0 0.00 0.00 0.00 42 1013.0
20260508231005 69 218 2.0 5.0 0.00 0.00 0.00 42 1013.0
20260508230505 70 230 3.0 6.0 0.00 0.00 0.00 42 1013.0
20260508230005 70 214 2.0 6.0 0.00 0.00 0.00 42 1013.0
20260508225504 70 224 2.0 6.0 0.00 0.00 0.00 42 1013.0
20260508225005 70 229 2.0 6.0 0.00 0.00 0.00 41 1013.0
20260508224504 70 226 3.0 7.0 0.00 0.00 0.00 40 1013.0
20260508224005 70 227 5.0 7.0 0.00 0.00 0.00 40 1013.1
20260508223504 71 234 3.0 7.0 0.00 0.00 0.00 39 1013.0
20260508223004 71 223 4.0 7.0 0.00 0.00 0.00 38 1013.1
20260508222504 72 205 3.0 7.0 0.00 0.00 0.00 39 1013.0
20260508222006 72 241 3.0 7.0 0.00 0.00 0.00 38 1013.1
20260508221004 73 206 2.0 6.0 0.00 0.00 0.00 38 1013.3
20260508220504 73 227 3.0 12.0 0.00 0.00 0.00 39 1013.3
20260508220005 73 216 3.0 12.0 0.00 0.00 0.00 37 1013.3
20260508215005 73 249 3.0 10.0 0.00 0.00 0.00 37 1013.3
20260508214504 73 220 3.0 10.0 0.00 0.00 0.00 37 1013.3
20260508214005 73 216 1.0 10.0 0.00 0.00 0.00 39 1013.3
20260508213504 73 199 5.0 10.0 0.00 0.00 0.00 37 1013.4
20260508213004 73 226 4.0 9.0 0.00 0.00 0.00 36 1013.4
20260508212504 73 210 5.0 9.0 0.00 0.00 0.00 36 1013.3
20260508212004 74 223 2.0 6.0 0.00 0.00 0.00 37 1013.3
20260508211505 74 202 2.0 5.0 0.00 0.00 0.00 35 1013.2
20260508211006 73 220 1.0 7.0 0.00 0.00 0.00 36 1013.2
20260508210504 73 177 3.0 8.0 0.00 0.00 0.00 38 1013.3
20260508210004 73 217 5.0 8.0 0.00 0.00 0.00 36 1013.3
20260508205505 73 204 2.0 7.0 0.00 0.00 0.00 38 1013.4
20260508205004 73 227 3.0 6.0 0.00 0.01 0.00 36 1013.4
20260508204005 73 238 2.0 7.0 0.00 0.02 0.00 37 1013.6
20260508203505 73 40 1.0 6.0 0.00 0.04 0.00 37 1013.5
20260508203004 74 229 4.0 6.0 0.00 0.05 0.00 37 1013.6
20260508202006 73 234 3.0 6.0 0.00 0.09 0.00 38 1013.7
20260508201505 72 236 2.0 6.0 0.00 0.10 0.00 39 1013.7
20260508201005 73 234 2.0 7.0 0.00 0.12 0.00 38 1013.7
20260508200505 72 232 3.0 7.0 0.00 0.15 0.00 39 1013.8
20260508200005 72 237 2.0 5.0 0.00 0.17 0.00 39 1013.7
20260508195505 72 278 2.0 8.0 0.00 0.27 0.00 39 1013.8
20260508195005 72 230 3.0 10.0 0.00 0.29 0.00 40 1014.0
20260508194505 72 222 4.0 10.0 0.00 0.29 0.00 39 1014.0
20260508194005 72 215 3.0 7.0 0.00 0.29 0.00 39 1014.1
20260508193506 73 221 3.0 7.0 0.00 0.29 0.00 38 1014.2
20260508193005 72 201 2.0 6.0 0.00 0.29 0.00 38 1014.3
20260508192504 72 216 2.0 8.0 0.00 0.29 0.00 40 1014.3
20260508192006 72 232 2.0 8.0 0.00 0.29 0.00 40 1014.4
20260508191004 71 282 2.0 8.0 0.00 0.29 0.00 40 1014.7
20260508190505 71 280 3.0 7.0 0.00 0.29 0.00 40 1014.9
20260508190004 72 224 3.0 7.0 0.00 0.29 0.00 42 1014.9
20260508185504 71 237 4.0 7.0 0.00 0.29 0.00 40 1015.0
20260508185005 70 230 2.0 8.0 0.00 0.29 0.00 41 1015.1
20260508184005 71 218 5.0 8.0 0.00 0.29 0.00 42 1015.1
20260508183504 70 207 0.0 8.0 0.00 0.29 0.00 43 1015.1
20260508183004 70 212 2.0 8.0 0.00 0.29 0.00 42 1015.2
20260508182504 70 232 2.0 7.0 0.00 0.29 0.00 42 1015.3
20260508182004 70 237 3.0 8.0 0.00 0.29 0.00 42 1015.3
20260508181505 69 213 3.0 8.0 0.00 0.29 0.00 41 1015.4
20260508181004 69 246 0.0 12.0 0.00 0.29 0.00 41 1015.5
20260508180504 70 245 5.0 12.0 0.00 0.29 0.00 41 1015.6
20260508180004 70 231 1.0 6.0 0.00 0.29 0.00 41 1015.6
20260508175504 69 205 2.0 6.0 0.00 0.29 0.00 45 1015.6
20260508175004 69 220 3.0 6.0 0.00 0.29 0.00 42 1015.7
20260508174504 69 210 1.0 8.0 0.00 0.29 0.00 42 1015.7
20260508173504 69 228 3.0 9.0 0.00 0.29 0.00 42 1015.7
20260508173004 68 259 3.0 8.0 0.00 0.29 0.00 44 1015.8
20260508172005 69 243 3.0 7.0 0.00 0.29 0.00 42 1016.1
20260508171504 68 226 2.0 8.0 0.00 0.29 0.00 45 1016.2
20260508171004 68 226 3.0 8.0 0.00 0.29 0.00 43 1016.2
20260508170504 68 196 1.0 7.0 0.00 0.29 0.00 49 1016.3
20260508170004 66 223 2.0 7.0 0.00 0.29 0.00 45 1016.4
20260508165504 66 349 2.0 7.0 0.00 0.29 0.00 44 1016.5
20260508164504 66 235 1.0 6.0 0.00 0.29 0.00 48 1016.6
20260508164004 66 221 3.0 6.0 0.00 0.29 0.00 49 1016.7
20260508163504 65 224 2.0 9.0 0.00 0.29 0.00 48 1016.9
20260508163004 65 207 3.0 9.0 0.00 0.29 0.00 51 1016.9
20260508162504 64 282 2.0 5.0 0.00 0.29 0.00 54 1017.0
20260508161504 63 206 1.0 5.0 0.00 0.29 0.00 54 1017.1
20260508161004 63 60 2.0 6.0 0.00 0.29 0.00 53 1017.2
20260508160504 63 242 2.0 6.0 0.00 0.29 0.00 53 1017.3
20260508160004 63 234 3.0 6.0 0.00 0.29 0.00 53 1017.4
20260508155505 62 266 0.0 3.0 0.00 0.29 0.00 54 1017.4
20260508155005 62 248 1.0 3.0 0.00 0.29 0.00 52 1017.4
20260508154504 61 200 1.0 3.0 0.00 0.29 0.00 52 1017.4
20260508154006 61 205 1.0 5.0 0.00 0.29 0.00 56 1017.5
20260508153504 61 70 2.0 5.0 0.00 0.29 0.00 56 1017.5
20260508153004 61 22 1.0 3.0 0.00 0.29 0.00 57 1017.5
20260508152505 61 219 0.0 7.0 0.00 0.29 0.00 56 1017.6
20260508151504 61 208 0.0 3.0 0.00 0.29 0.00 61 1017.6
20260508151004 61 80 0.0 3.0 0.00 0.29 0.00 60 1017.6
20260508150504 61 69 0.0 7.0 0.00 0.29 0.00 60 1017.7
20260508145504 60 138 0.0 3.0 0.00 0.29 0.00 61 1017.7
20260508145005 60 132 1.0 3.0 0.00 0.29 0.00 62 1017.7
20260508144503 59 56 0.0 3.0 0.00 0.29 0.00 65 1017.7
20260508144004 59 155 0.0 3.0 0.00 0.29 0.00 64 1017.7
20260508143004 58 5 1.0 3.0 0.00 0.29 0.00 69 1017.7
20260508142504 58 59 0.0 0.0 0.00 0.29 0.00 71 1017.7
20260508142004 57 144 0.0 0.0 0.00 0.29 0.00 72 1017.7
20260508141504 57 144 0.0 3.0 0.00 0.29 0.00 70 1017.6
20260508141005 57 144 2.0 3.0 0.00 0.29 0.00 72 1017.6
20260508135505 56 121 0.0 5.0 0.00 0.29 0.00 83 1017.6
20260508135004 54 37 1.0 5.0 0.00 0.29 0.00 86 1017.7
20260508134504 53 63 0.0 3.0 0.00 0.29 0.00 87 1017.8
20260508133504 53 101 1.0 3.0 0.00 0.29 0.00 93 1017.9
20260508133004 53 351 0.0 0.0 0.00 0.29 0.00 94 1017.9
20260508132504 52 351 0.0 0.0 0.00 0.29 0.00 94 1017.9
20260508132004 53 351 0.0 0.0 0.00 0.29 0.00 94 1017.8
20260508131504 53 351 0.0 3.0 0.00 0.29 0.00 93 1017.8
20260508131005 53 351 1.0 3.0 0.00 0.29 0.00 92 1017.8
20260508130504 52 351 1.0 3.0 0.00 0.29 0.00 92 1017.8
20260508130004 52 346 2.0 3.0 0.00 0.29 0.00 92 1017.8
20260508125004 51 345 0.0 0.0 0.00 0.29 0.00 92 1017.8
20260508124503 51 345 0.0 2.0 0.00 0.29 0.00 92 1017.7
20260508124004 51 341 0.0 3.0 0.00 0.29 0.00 92 1017.7
20260508123503 50 178 1.0 3.0 0.00 0.29 0.00 92 1017.7
20260508123004 50 185 0.0 0.0 0.00 0.29 0.00 93 1017.6
20260508122503 49 186 0.0 0.0 0.00 0.29 0.00 93 1017.6
20260508122005 49 186 0.0 0.0 0.00 0.29 0.00 92 1017.5
20260508121504 49 186 0.0 0.0 0.00 0.29 0.00 93 1017.5
20260508121004 48 186 0.0 0.0 0.00 0.29 0.00 93 1017.4
20260508120504 48 186 0.0 0.0 0.00 0.29 0.00 93 1017.2
20260508120004 48 186 0.0 0.0 0.00 0.29 0.00 93 1017.1
20260508115504 48 186 0.0 0.0 0.00 0.29 0.00 93 1017.1
20260508115004 47 186 0.0 0.0 0.00 0.29 0.00 93 1017.0
20260508114504 47 186 0.0 0.0 0.00 0.29 0.00 93 1016.9
20260508114004 47 186 0.0 0.0 0.00 0.29 0.00 93 1016.9
20260508113006 46 186 0.0 0.0 0.00 0.29 0.00 93 1016.8
20260508112507 45 186 0.0 0.0 0.00 0.29 0.00 93 1016.7
20260508112006 45 186 0.0 0.0 0.00 0.29 0.00 93 1016.6
20260508111506 45 186 0.0 0.0 0.00 0.29 0.00 93 1016.6
20260508111006 44 186 0.0 0.0 0.00 0.29 0.00 93 1016.4
20260508110506 44 186 0.0 0.0 0.00 0.29 0.00 93 1016.3
20260508105506 44 186 0.0 0.0 0.00 0.29 0.00 93 1016.2
20260508105006 44 186 0.0 0.0 0.00 0.29 0.00 93 1016.1
20260508104507 44 186 0.0 0.0 0.00 0.29 0.00 93 1016.0
20260508104006 44 186 0.0 0.0 0.00 0.29 0.00 93 1016.0
20260508103506 44 186 0.0 0.0 0.00 0.29 0.00 93 1015.8
20260508103006 44 186 0.0 0.0 0.00 0.29 0.00 93 1015.8
20260508102506 44 186 0.0 0.0 0.00 0.29 0.00 93 1015.8
20260508101506 45 186 0.0 0.0 0.00 0.29 0.00 93 1015.8
20260508101006 45 186 0.0 0.0 0.00 0.29 0.00 93 1015.7
20260508100506 45 186 0.0 0.0 0.00 0.29 0.00 93 1015.6
20260508100006 45 186 0.0 0.0 0.00 0.29 0.00 93 1015.5
20260508095506 45 186 0.0 0.0 0.00 0.29 0.00 93 1015.5
20260508095007 46 186 0.0 0.0 0.00 0.29 0.00 93 1015.4
20260508094006 46 186 0.0 0.0 0.00 0.29 0.00 93 1015.3
20260508093006 46 186 0.0 0.0 0.00 0.29 0.00 93 1015.2
20260508092506 46 186 0.0 0.0 0.00 0.29 0.00 93 1015.1
20260508092006 46 186 0.0 0.0 0.00 0.32 0.00 93 1015.1
20260508091006 46 146 0.0 0.0 0.00 0.33 0.00 93 1014.9
20260508090507 45 137 0.0 0.0 0.00 0.33 0.00 93 1014.9
20260508090006 45 137 0.0 0.0 0.00 0.33 0.00 93 1014.9
20260508085507 45 137 0.0 0.0 0.00 0.33 0.00 93 1014.8
20260508085006 45 137 0.0 0.0 0.00 0.33 0.00 94 1014.8
20260508084506 46 136 0.0 0.0 0.00 0.33 0.00 93 1014.8
20260508084006 46 136 0.0 0.0 0.00 0.33 0.00 93 1014.7
20260508083506 46 136 0.0 0.0 0.00 0.33 0.00 93 1014.7
20260508083006 46 136 0.0 0.0 0.00 0.33 0.00 93 1014.6
20260508082506 46 136 0.0 0.0 0.00 0.33 0.00 93 1014.5
20260508082006 46 136 0.0 0.0 0.00 0.33 0.00 93 1014.4
20260508081506 46 136 0.0 0.0 0.00 0.33 0.00 93 1014.3
20260508081006 46 136 0.0 0.0 0.00 0.33 0.00 94 1014.2
20260508080507 46 136 0.0 0.0 0.00 0.33 0.00 94 1014.3
20260508080006 46 136 0.0 0.0 0.00 0.33 0.00 93 1014.2
20260508075506 46 136 0.0 0.0 0.00 0.33 0.00 93 1014.3
20260508075006 46 136 0.0 0.0 0.00 0.33 0.00 93 1014.2
20260508074506 46 136 0.0 0.0 0.00 0.33 0.00 93 1014.2
20260508074006 46 136 0.0 0.0 0.00 0.33 0.00 93 1014.1
20260508073505 46 136 0.0 0.0 0.00 0.33 0.00 93 1014.2
20260508073006 46 136 0.0 0.0 0.00 0.33 0.00 94 1014.1
20260508072506 47 136 0.0 0.0 0.00 0.33 0.00 94 1014.1
20260508072006 47 136 0.0 0.0 0.00 0.33 0.00 94 1014.0
20260508071506 47 136 0.0 0.0 0.00 0.33 0.00 94 1014.0
20260508071005 47 136 0.0 0.0 0.00 0.33 0.00 93 1013.9
20260508070505 47 136 0.0 0.0 0.00 0.33 0.00 93 1013.8
20260508070006 47 136 0.0 0.0 0.00 0.33 0.00 93 1013.8
20260508065505 47 136 0.0 0.0 0.00 0.33 0.00 93 1013.8
20260508065005 47 136 0.0 0.0 0.00 0.33 0.00 94 1013.8
20260508064005 47 136 0.0 0.0 0.00 0.33 0.00 94 1013.8
20260508063505 47 136 0.0 0.0 0.00 0.33 0.00 94 1013.7
20260508063007 47 136 0.0 0.0 0.00 0.33 0.00 93 1013.7
20260508062506 48 136 0.0 0.0 0.00 0.33 0.00 93 1013.6
20260508062006 48 136 0.0 0.0 0.00 0.33 0.00 93 1013.6
20260508061506 48 136 0.0 0.0 0.00 0.33 0.00 93 1013.5
20260508061006 48 136 0.0 0.0 0.00 0.33 0.00 94 1013.5
20260508060505 48 136 0.0 0.0 0.00 0.33 0.00 94 1013.4
20260508060006 48 136 0.0 0.0 0.00 0.33 0.00 94 1013.4
20260508055508 48 136 0.0 0.0 0.00 0.33 0.00 93 1013.3
20260508055005 48 136 0.0 0.0 0.00 0.33 0.00 93 1013.3
20260508054507 48 136 0.0 0.0 0.00 0.33 0.00 93 1013.2
20260508054007 48 136 0.0 0.0 0.00 0.33 0.00 93 1013.2
20260508053506 48 136 0.0 0.0 0.00 0.33 0.00 93 1013.1
20260508052506 48 136 0.0 0.0 0.00 0.33 0.00 94 1013.2
20260508052005 48 136 0.0 0.0 0.00 0.33 0.00 94 1013.2
20260508051505 48 136 0.0 0.0 0.00 0.33 0.00 94 1013.2
20260508051005 49 136 0.0 0.0 0.00 0.33 0.00 94 1013.1
20260508050506 49 136 0.0 0.0 0.00 0.33 0.00 93 1013.2
20260508050006 49 136 0.0 0.0 0.00 0.33 0.00 93 1013.1
20260508045505 49 136 0.0 0.0 0.00 0.33 0.00 93 1013.1
20260508045006 49 136 0.0 0.0 0.00 0.33 0.00 94 1013.0
20260508044506 49 136 0.0 0.0 0.00 0.33 0.00 94 1013.0
20260508044006 49 136 0.0 0.0 0.00 0.33 0.00 94 1012.9
20260508043505 49 136 0.0 0.0 0.00 0.33 0.00 93 1012.9
20260508043006 49 136 0.0 0.0 0.00 0.33 0.00 93 1012.8
20260508042506 49 136 0.0 0.0 0.00 0.33 0.00 93 1012.9
20260508042007 49 136 0.0 0.0 0.00 0.33 0.00 94 1012.9
20260508041506 50 136 0.0 0.0 0.00 0.33 0.00 94 1012.9
20260508041005 50 136 0.0 0.0 0.00 0.33 0.00 93 1012.8
20260508040506 50 136 0.0 0.0 0.00 0.33 0.00 93 1012.8
20260508040006 50 136 0.0 0.0 0.00 0.33 0.00 93 1012.7
20260508035505 50 136 0.0 0.0 0.00 0.33 0.33 94 1012.7
20260508035006 50 136 0.0 0.0 0.00 0.33 0.33 94 1012.6
20260508034506 50 136 0.0 0.0 0.00 0.33 0.33 93 1012.7
20260508034006 50 136 0.0 0.0 0.00 0.33 0.33 93 1012.6
20260508033505 50 136 0.0 0.0 0.00 0.33 0.33 93 1012.6
20260508033006 50 136 0.0 0.0 0.00 0.33 0.33 94 1012.5
20260508032507 50 136 0.0 0.0 0.00 0.33 0.33 94 1012.5
20260508032006 50 136 0.0 0.0 0.00 0.33 0.33 93 1012.6
20260508031506 50 136 0.0 0.0 0.00 0.33 0.33 93 1012.6
20260508031006 50 136 0.0 0.0 0.00 0.33 0.33 93 1012.6
20260508030505 50 136 0.0 0.0 0.00 0.33 0.33 93 1012.6
20260508030005 50 136 0.0 0.0 0.00 0.33 0.33 93 1012.5
20260508025505 50 136 0.0 0.0 0.00 0.33 0.33 93 1012.4
20260508025005 50 136 0.0 0.0 0.00 0.33 0.33 93 1012.3
20260508024505 50 136 0.0 0.0 0.00 0.33 0.33 93 1012.3